Powrót do katalogu

STARLINK-35120

AktywnyŁącznośćSSO
NORAD 65659·PAYLOAD·🇺🇸 United States

Wystrzelony Sep 19, 2025 z Vandenberg Space Force Base

Loading…

Następne Przeloty (najbliższe 24 godziny)

TLE

ŚwieżeSource: CelesTrak SupGP

Epoka: Sep 14, 2026, 21:28 UTC

1 65659C 25211H   26257.89493056 -.00006084  00000+0 -18891-3 0  2574
2 65659  97.2836 298.1695 0001241  90.7710 205.6154 15.33435839    18

Śledź STARLINK-35120 w czasie rzeczywistym z AllMySat

Download on the App Store